Location: Poughquag
(41.6090°N, 73.6820°W)
Time: 11:50:02
(UTC-04:00)

Vanguard 1 Rocket - Pass Details

Date: 31 May 2020
Orbit: 653 x 4224 km, 34.3° (Epoch: 06 July)

Event Time Altitude Azimuth Distance (km) Brightness Sun altitude
Rises 00:23:14 0° 228° (SW) 8,336 12.0 -26.1°
Reaches altitude 10° 00:29:48 10° 224° (SW) 7,044 11.5 -26.2°
Maximum altitude 00:49:38 46° 160° (SSE) 3,365 9.7 -26.4°
Drops below altitude 10° 01:00:48 10° 92° (E) 4,136 10.7 -26.4°
Sets 01:03:31 0° 86° (E) 4,772 11.2 -26.4°
